Time,TemperatureF,DewpointF,PressureIn,WindDirection,WindDirectionDegrees,WindSpeedMPH,WindSpeedGustMPH,Humidity,HourlyPrecipIn,Conditions,Clouds,dailyrainin,SoftwareType,DateUTC
2013-03-18 00:02:00,31.1,9.0,29.82,South,184,3.0,6.0,39,0.00,,,0.00,meteohub,2013-03-18 06:02:00,
2013-03-18 00:08:00,30.9,7.2,29.83,NNW,328,0.0,6.0,36,0.00,,,0.00,meteohub,2013-03-18 06:08:00,
2013-03-18 00:13:00,30.9,7.7,29.83,SSE,162,0.0,6.0,37,0.00,,,0.00,meteohub,2013-03-18 06:13:00,
2013-03-18 00:19:00,30.7,6.3,29.83,SSE,158,2.0,6.0,35,0.00,,,0.00,meteohub,2013-03-18 06:19:00,
2013-03-18 00:25:00,30.4,4.6,29.83,NW,322,4.0,6.0,33,0.00,,,0.00,meteohub,2013-03-18 06:25:00,
2013-03-18 00:30:00,31.3,1.9,29.83,NE,37,2.0,16.0,28,0.00,,,0.00,meteohub,2013-03-18 06:30:00,
2013-03-18 00:36:00,31.5,2.1,29.83,NW,323,2.0,16.0,28,0.00,,,0.00,meteohub,2013-03-18 06:36:00,
2013-03-18 00:42:00,31.3,2.7,29.83,WNW,291,6.0,16.0,29,0.00,,,0.00,meteohub,2013-03-18 06:42:00,
2013-03-18 00:47:00,31.3,2.7,29.83,SSW,208,5.0,9.0,29,0.00,,,0.00,meteohub,2013-03-18 06:47:00,
2013-03-18 00:52:00,31.3,0.3,29.83,West,260,5.0,11.0,26,0.00,,,0.00,meteohub,2013-03-18 06:52:00,
2013-03-18 00:57:00,30.9,1.6,29.83,NNW,333,8.0,11.0,28,0.00,,,0.00,meteohub,2013-03-18 06:57:00,
2013-03-18 01:02:00,30.9,0.0,29.83,NW,315,9.0,12.0,26,0.00,,,0.00,meteohub,2013-03-18 07:02:00,
2013-03-18 01:07:00,30.9,-0.8,29.83,WNW,294,0.0,15.0,25,0.00,,,0.00,meteohub,2013-03-18 07:07:00,
2013-03-18 01:12:00,30.7,0.0,29.84,West,280,2.0,15.0,26,0.00,,,0.00,meteohub,2013-03-18 07:12:00,
2013-03-18 01:17:00,30.6,-0.2,29.84,WSW,239,3.0,15.0,26,0.00,,,0.00,meteohub,2013-03-18 07:17:00,
2013-03-18 01:22:00,30.4,-0.4,29.84,SW,233,0.0,6.0,26,0.00,,,0.00,meteohub,2013-03-18 07:22:00,
2013-03-18 01:27:00,30.0,-0.8,29.84,NW,315,2.0,6.0,26,0.00,,,0.00,meteohub,2013-03-18 07:27:00,
2013-03-18 01:33:00,30.0,-0.8,29.84,West,268,4.0,6.0,26,0.00,,,0.00,meteohub,2013-03-18 07:33:00,
2013-03-18 01:39:00,30.4,-1.3,29.84,NW,319,6.0,12.0,25,0.00,,,0.00,meteohub,2013-03-18 07:39:00,
2013-03-18 01:45:00,30.6,-1.1,29.85,West,271,6.0,12.0,25,0.00,,,0.00,meteohub,2013-03-18 07:45:00,
2013-03-18 01:50:00,30.6,-1.1,29.84,WSW,253,4.0,12.0,25,0.00,,,0.00,meteohub,2013-03-18 07:50:00,
2013-03-18 01:55:00,30.4,-1.3,29.84,West,281,11.0,11.0,25,0.00,,,0.00,meteohub,2013-03-18 07:55:00,
2013-03-18 02:01:00,30.2,-0.6,29.85,NNW,335,7.0,16.0,26,0.00,,,0.00,meteohub,2013-03-18 08:01:00,
2013-03-18 02:07:00,30.4,-0.4,29.86,WNW,283,1.0,16.0,26,0.00,,,0.00,meteohub,2013-03-18 08:07:00,
2013-03-18 02:12:00,30.0,-0.8,29.86,NW,311,1.0,16.0,26,0.00,,,0.00,meteohub,2013-03-18 08:12:00,
2013-03-18 02:17:00,29.7,-0.2,29.86,WNW,297,1.0,14.0,27,0.00,,,0.00,meteohub,2013-03-18 08:17:00,
2013-03-18 02:23:00,29.5,-0.4,29.86,WNW,290,3.0,4.0,27,0.00,,,0.00,meteohub,2013-03-18 08:23:00,
2013-03-18 02:28:00,29.5,0.3,29.86,NW,315,4.0,5.0,28,0.00,,,0.00,meteohub,2013-03-18 08:28:00,
2013-03-18 02:34:00,29.1,0.1,29.86,NW,310,4.0,8.0,28,0.00,,,0.00,meteohub,2013-03-18 08:34:00,
2013-03-18 02:39:00,29.1,0.1,29.86,NW,324,3.0,8.0,28,0.00,,,0.00,meteohub,2013-03-18 08:39:00,
2013-03-18 02:45:00,29.1,0.9,29.86,NW,325,2.0,11.0,29,0.00,,,0.00,meteohub,2013-03-18 08:45:00,
2013-03-18 02:50:00,28.9,0.7,29.86,NW,311,2.0,9.0,29,0.00,,,0.00,meteohub,2013-03-18 08:50:00,
2013-03-18 02:56:00,28.6,1.0,29.87,WNW,290,2.0,7.0,30,0.00,,,0.00,meteohub,2013-03-18 08:56:00,
2013-03-18 03:01:00,28.2,0.0,29.87,SW,229,3.0,7.0,29,0.00,,,0.00,meteohub,2013-03-18 09:01:00,
2013-03-18 03:07:00,28.0,-0.2,29.87,SSE,161,0.0,5.0,29,0.00,,,0.00,meteohub,2013-03-18 09:07:00,
2013-03-18 03:12:00,27.9,-0.2,29.87,WNW,297,0.0,5.0,29,0.00,,,0.00,meteohub,2013-03-18 09:12:00,
2013-03-18 03:17:00,28.0,-0.2,29.88,NNW,340,2.0,5.0,29,0.00,,,0.00,meteohub,2013-03-18 09:17:00,
2013-03-18 03:23:00,28.2,0.0,29.88,West,271,0.0,4.0,29,0.00,,,0.00,meteohub,2013-03-18 09:23:00,
2013-03-18 03:28:00,28.2,0.0,29.88,SSW,205,0.0,4.0,29,0.00,,,0.00,meteohub,2013-03-18 09:28:00,
2013-03-18 03:34:00,28.2,0.0,29.88,NW,323,3.0,4.0,29,0.00,,,0.00,meteohub,2013-03-18 09:34:00,
2013-03-18 03:39:00,28.2,0.0,29.88,NE,39,2.0,6.0,29,0.00,,,0.00,meteohub,2013-03-18 09:39:00,
2013-03-18 03:45:00,28.2,0.7,29.88,NW,311,0.0,6.0,30,0.00,,,0.00,meteohub,2013-03-18 09:45:00,
2013-03-18 03:50:00,28.2,0.0,29.88,ESE,121,2.0,5.0,29,0.00,,,0.00,meteohub,2013-03-18 09:50:00,
2013-03-18 03:56:00,27.3,0.0,29.88,SW,235,6.0,6.0,30,0.00,,,0.00,meteohub,2013-03-18 09:56:00,
2013-03-18 04:02:00,27.1,0.5,29.87,SE,126,6.0,6.0,31,0.00,,,0.00,meteohub,2013-03-18 10:02:00,
2013-03-18 04:08:00,26.8,0.9,29.88,SSE,155,0.0,7.0,32,0.00,,,0.00,meteohub,2013-03-18 10:08:00,
2013-03-18 04:13:00,26.6,0.7,29.88,East,89,1.0,7.0,32,0.00,,,0.00,meteohub,2013-03-18 10:13:00,
2013-03-18 04:19:00,26.6,0.7,29.87,SE,143,1.0,7.0,32,0.00,,,0.00,meteohub,2013-03-18 10:19:00,
2013-03-18 04:24:00,27.1,0.5,29.87,ENE,75,2.0,3.0,31,0.00,,,0.00,meteohub,2013-03-18 10:24:00,
2013-03-18 04:30:00,26.8,0.9,29.87,SW,222,3.0,3.0,32,0.00,,,0.00,meteohub,2013-03-18 10:30:00,
2013-03-18 04:35:00,26.6,0.7,29.88,NNE,27,4.0,7.0,32,0.00,,,0.00,meteohub,2013-03-18 10:35:00,
2013-03-18 04:41:00,27.3,1.4,29.87,NNW,328,3.0,7.0,32,0.00,,,0.00,meteohub,2013-03-18 10:41:00,
2013-03-18 04:46:00,27.5,2.1,29.87,WSW,246,2.0,20.0,33,0.00,,,0.00,meteohub,2013-03-18 10:46:00,
2013-03-18 04:52:00,27.7,2.3,29.87,West,263,5.0,20.0,33,0.00,,,0.00,meteohub,2013-03-18 10:52:00,
2013-03-18 04:57:00,27.9,2.5,29.87,WNW,303,2.0,10.0,33,0.00,,,0.00,meteohub,2013-03-18 10:57:00,
2013-03-18 05:02:00,28.0,2.7,29.87,SW,231,2.0,10.0,33,0.00,,,0.00,meteohub,2013-03-18 11:02:00,
2013-03-18 05:07:00,28.0,3.2,29.87,WNW,288,6.0,7.0,34,0.00,,,0.00,meteohub,2013-03-18 11:07:00,
2013-03-18 05:13:00,28.2,3.4,29.87,West,276,8.0,13.0,34,0.00,,,0.00,meteohub,2013-03-18 11:13:00,
2013-03-18 05:19:00,28.6,4.5,29.87,SW,219,4.0,16.0,35,0.00,,,0.00,meteohub,2013-03-18 11:19:00,
2013-03-18 05:24:00,28.6,5.0,29.87,NW,322,3.0,16.0,36,0.00,,,0.00,meteohub,2013-03-18 11:24:00,
2013-03-18 05:29:00,28.2,5.4,29.88,West,281,11.0,16.0,37,0.00,,,0.00,meteohub,2013-03-18 11:29:00,
2013-03-18 05:35:00,28.2,5.9,29.88,WNW,290,1.0,14.0,38,0.00,,,0.00,meteohub,2013-03-18 11:35:00,
2013-03-18 05:41:00,28.2,5.9,29.88,WNW,285,3.0,11.0,38,0.00,,,0.00,meteohub,2013-03-18 11:41:00,
2013-03-18 05:47:00,28.2,5.9,29.88,WSW,256,3.0,12.0,38,0.00,,,0.00,meteohub,2013-03-18 11:47:00,
2013-03-18 05:52:00,28.0,6.3,29.88,WSW,250,1.0,15.0,39,0.00,,,0.00,meteohub,2013-03-18 11:52:00,
2013-03-18 05:57:00,28.0,6.3,29.88,SSE,156,1.0,15.0,39,0.00,,,0.00,meteohub,2013-03-18 11:57:00,
2013-03-18 06:02:00,27.9,6.1,29.88,SE,139,0.0,8.0,39,0.00,,,0.00,meteohub,2013-03-18 12:02:00,
2013-03-18 06:07:00,27.5,6.3,29.88,SSE,160,1.0,3.0,40,0.00,,,0.00,meteohub,2013-03-18 12:07:00,
2013-03-18 06:12:00,27.7,5.9,29.87,SSE,156,2.0,2.0,39,0.00,,,0.00,meteohub,2013-03-18 12:12:00,
2013-03-18 06:17:00,27.7,7.0,29.88,North,358,2.0,4.0,41,0.00,,,0.00,meteohub,2013-03-18 12:17:00,
2013-03-18 06:23:00,27.3,6.3,29.88,ENE,64,3.0,4.0,40,0.00,,,0.00,meteohub,2013-03-18 12:23:00,
2013-03-18 06:28:00,27.1,6.1,29.88,ENE,64,4.0,4.0,40,0.00,,,0.00,meteohub,2013-03-18 12:28:00,
2013-03-18 06:34:00,27.0,7.0,29.89,North,351,1.0,6.0,42,0.00,,,0.00,meteohub,2013-03-18 12:34:00,
2013-03-18 06:40:00,27.1,8.1,29.89,NW,311,4.0,6.0,44,0.00,,,0.00,meteohub,2013-03-18 12:40:00,
2013-03-18 06:45:00,27.1,8.6,29.89,WNW,291,1.0,9.0,45,0.00,,,0.00,meteohub,2013-03-18 12:45:00,
2013-03-18 06:51:00,27.1,8.1,29.89,WNW,293,1.0,9.0,44,0.00,,,0.00,meteohub,2013-03-18 12:51:00,
2013-03-18 06:57:00,27.1,8.1,29.89,WNW,288,0.0,7.0,44,0.00,,,0.00,meteohub,2013-03-18 12:57:00,
2013-03-18 07:02:00,27.0,8.4,29.89,WSW,240,2.0,7.0,45,0.00,,,0.00,meteohub,2013-03-18 13:02:00,
2013-03-18 07:07:00,26.8,8.8,29.89,WSW,255,3.0,7.0,46,0.00,,,0.00,meteohub,2013-03-18 13:07:00,
2013-03-18 07:12:00,26.8,8.8,29.90,ENE,59,3.0,10.0,46,0.00,,,0.00,meteohub,2013-03-18 13:12:00,
2013-03-18 07:17:00,26.6,9.1,29.90,NE,36,10.0,10.0,47,0.00,,,0.00,meteohub,2013-03-18 13:17:00,
2013-03-18 07:22:00,26.8,9.3,29.90,NW,323,7.0,11.0,47,0.00,,,0.00,meteohub,2013-03-18 13:22:00,
2013-03-18 07:27:00,26.8,9.3,29.90,WNW,302,3.0,11.0,47,0.00,,,0.00,meteohub,2013-03-18 13:27:00,
2013-03-18 07:32:00,26.6,10.0,29.90,SSW,205,3.0,11.0,49,0.00,,,0.00,meteohub,2013-03-18 13:32:00,
2013-03-18 07:37:00,26.2,10.9,29.90,SSE,147,2.0,8.0,52,0.00,,,0.00,meteohub,2013-03-18 13:37:00,
2013-03-18 07:43:00,25.9,12.0,29.91,SSE,150,0.0,4.0,55,0.00,,,0.00,meteohub,2013-03-18 13:43:00,
2013-03-18 07:48:00,25.5,12.4,29.91,NNW,332,2.0,4.0,57,0.00,,,0.00,meteohub,2013-03-18 13:48:00,
2013-03-18 07:54:00,25.7,11.8,29.91,North,349,5.0,5.0,55,0.00,,,0.00,meteohub,2013-03-18 13:54:00,
2013-03-18 08:00:00,25.7,12.6,29.91,NW,322,2.0,8.0,57,0.00,,,0.00,meteohub,2013-03-18 14:00:00,
2013-03-18 08:05:00,25.9,12.0,29.91,North,351,2.0,8.0,55,0.00,,,0.00,meteohub,2013-03-18 14:05:00,
2013-03-18 08:10:00,26.2,10.6,29.92,NW,317,3.0,9.0,51,0.00,,,0.00,meteohub,2013-03-18 14:10:00,
2013-03-18 08:16:00,26.4,10.2,29.92,North,359,3.0,9.0,50,0.00,,,0.00,meteohub,2013-03-18 14:16:00,
2013-03-18 08:22:00,26.4,10.8,29.92,North,349,1.0,9.0,51,0.00,,,0.00,meteohub,2013-03-18 14:22:00,
2013-03-18 08:27:00,26.4,12.4,29.92,South,172,6.0,8.0,55,0.00,,,0.00,meteohub,2013-03-18 14:27:00,
2013-03-18 08:32:00,25.9,13.5,29.93,East,98,0.0,7.0,59,0.00,,,0.00,meteohub,2013-03-18 14:32:00,
2013-03-18 08:38:00,25.9,13.1,29.93,ESE,120,1.0,7.0,58,0.00,,,0.00,meteohub,2013-03-18 14:38:00,
2013-03-18 08:43:00,25.9,13.1,29.93,SE,142,3.0,7.0,58,0.00,,,0.00,meteohub,2013-03-18 14:43:00,
2013-03-18 08:49:00,26.1,13.3,29.93,South,170,0.0,3.0,58,0.00,,,0.00,meteohub,2013-03-18 14:49:00,
2013-03-18 08:55:00,26.1,14.5,29.94,SE,143,3.0,4.0,61,0.00,,,0.00,meteohub,2013-03-18 14:55:00,
2013-03-18 09:00:00,26.1,14.5,29.94,SW,222,0.0,6.0,61,0.00,,,0.00,meteohub,2013-03-18 15:00:00,
2013-03-18 09:05:00,26.2,14.5,29.94,SE,140,4.0,6.0,61,0.00,,,0.00,meteohub,2013-03-18 15:05:00,
2013-03-18 09:11:00,26.2,15.1,29.94,ESE,117,5.0,6.0,62,0.00,,,0.00,meteohub,2013-03-18 15:11:00,
2013-03-18 09:17:00,26.1,15.3,29.94,SSE,156,3.0,8.0,63,0.00,,,0.00,meteohub,2013-03-18 15:17:00,
2013-03-18 09:22:00,26.2,15.4,29.94,SE,129,6.0,8.0,63,0.00,,,0.00,meteohub,2013-03-18 15:22:00,
2013-03-18 09:27:00,26.2,15.8,29.94,SE,136,4.0,8.0,64,0.00,,,0.00,meteohub,2013-03-18 15:27:00,
2013-03-18 09:32:00,26.8,15.8,29.94,ESE,108,8.0,9.0,63,0.00,,,0.00,meteohub,2013-03-18 15:32:00,
2013-03-18 09:38:00,27.0,16.0,29.95,SE,144,3.0,9.0,63,0.00,,,0.00,meteohub,2013-03-18 15:38:00,
2013-03-18 09:43:00,27.1,15.1,29.95,SSE,149,6.0,9.0,60,0.00,,,0.00,meteohub,2013-03-18 15:43:00,
2013-03-18 09:49:00,27.7,14.4,29.95,SSW,201,4.0,9.0,57,0.00,,,0.00,meteohub,2013-03-18 15:49:00,
2013-03-18 09:54:00,27.9,13.8,29.95,South,176,7.0,9.0,55,0.00,,,0.00,meteohub,2013-03-18 15:54:00,
2013-03-18 10:00:00,27.9,13.8,29.95,SSE,148,3.0,11.0,55,0.00,,,0.00,meteohub,2013-03-18 16:00:00,
2013-03-18 10:06:00,28.0,13.5,29.95,SE,136,3.0,11.0,54,0.00,,,0.00,meteohub,2013-03-18 16:06:00,
2013-03-18 10:12:00,28.2,13.6,29.96,South,180,6.0,11.0,54,0.00,,,0.00,meteohub,2013-03-18 16:12:00,
2013-03-18 10:17:00,28.8,14.2,29.96,SSE,160,2.0,11.0,54,0.00,,,0.00,meteohub,2013-03-18 16:17:00,
2013-03-18 10:22:00,28.9,14.0,29.96,SSW,211,1.0,11.0,53,0.00,,,0.00,meteohub,2013-03-18 16:22:00,
2013-03-18 10:27:00,29.1,13.6,29.96,South,169,4.0,10.0,52,0.00,,,0.00,meteohub,2013-03-18 16:27:00,
2013-03-18 10:32:00,29.7,13.3,29.96,SE,135,5.0,10.0,50,0.00,,,0.00,meteohub,2013-03-18 16:32:00,
2013-03-18 10:37:00,30.0,13.6,29.96,SSE,156,4.0,9.0,50,0.00,,,0.00,meteohub,2013-03-18 16:37:00,
2013-03-18 10:42:00,30.4,13.5,29.96,SW,219,2.0,13.0,49,0.00,,,0.00,meteohub,2013-03-18 16:42:00,
2013-03-18 10:47:00,30.9,14.0,29.96,SSW,210,2.0,13.0,49,0.00,,,0.00,meteohub,2013-03-18 16:47:00,
2013-03-18 10:52:00,31.3,13.5,29.96,SE,141,5.0,14.0,47,0.00,,,0.00,meteohub,2013-03-18 16:52:00,
2013-03-18 10:57:00,31.6,12.2,29.96,SE,145,11.0,15.0,44,0.00,,,0.00,meteohub,2013-03-18 16:57:00,
2013-03-18 11:02:00,31.6,12.2,29.96,SW,221,9.0,17.0,44,0.00,,,0.00,meteohub,2013-03-18 17:02:00,
2013-03-18 11:07:00,31.5,13.1,29.95,South,179,6.0,17.0,46,0.00,,,0.00,meteohub,2013-03-18 17:07:00,
2013-03-18 11:13:00,31.5,13.1,29.95,ESE,113,3.0,15.0,46,0.00,,,0.00,meteohub,2013-03-18 17:13:00,
2013-03-18 11:18:00,32.2,13.3,29.96,ESE,120,5.0,15.0,45,0.00,,,0.00,meteohub,2013-03-18 17:18:00,
2013-03-18 11:24:00,31.8,12.9,29.96,SSE,156,4.0,15.0,45,0.00,,,0.00,meteohub,2013-03-18 17:24:00,
2013-03-18 11:29:00,32.5,13.1,29.95,South,169,5.0,16.0,44,0.00,,,0.00,meteohub,2013-03-18 17:29:00,
2013-03-18 11:35:00,33.3,11.5,29.95,South,176,9.0,16.0,40,0.00,,,0.00,meteohub,2013-03-18 17:35:00,
2013-03-18 11:40:00,33.4,11.7,29.95,SSE,153,2.0,16.0,40,0.00,,,0.00,meteohub,2013-03-18 17:40:00,
2013-03-18 11:46:00,33.4,12.2,29.95,NW,311,2.0,16.0,41,0.00,,,0.00,meteohub,2013-03-18 17:46:00,
2013-03-18 11:52:00,33.1,7.2,29.95,ENE,77,4.0,13.0,33,0.00,,,0.00,meteohub,2013-03-18 17:52:00,
2013-03-18 11:57:00,33.3,7.3,29.95,NNW,333,6.0,21.0,33,0.00,,,0.00,meteohub,2013-03-18 17:57:00,
2013-03-18 12:02:00,34.2,7.3,29.96,West,263,2.0,21.0,32,0.00,,,0.00,meteohub,2013-03-18 18:02:00,
2013-03-18 12:08:00,34.5,5.5,29.96,NW,323,5.0,20.0,29,0.00,,,0.00,meteohub,2013-03-18 18:08:00,
2013-03-18 12:13:00,34.3,6.8,29.96,WNW,301,12.0,15.0,31,0.00,,,0.00,meteohub,2013-03-18 18:13:00,
2013-03-18 12:19:00,33.6,5.5,29.95,NW,323,16.0,28.0,30,0.00,,,0.00,meteohub,2013-03-18 18:19:00,
2013-03-18 12:24:00,33.8,5.7,29.95,NNW,336,11.0,28.0,30,0.00,,,0.00,meteohub,2013-03-18 18:24:00,
2013-03-18 12:30:00,33.4,6.8,29.96,NNW,330,11.0,21.0,32,0.00,,,0.00,meteohub,2013-03-18 18:30:00,
2013-03-18 12:36:00,34.0,5.0,29.95,WSW,245,5.0,20.0,29,0.00,,,0.00,meteohub,2013-03-18 18:36:00,
2013-03-18 12:42:00,35.8,7.3,29.95,WSW,252,8.0,20.0,30,0.00,,,0.00,meteohub,2013-03-18 18:42:00,
2013-03-18 12:47:00,35.8,8.1,29.95,SW,236,3.0,20.0,31,0.00,,,0.00,meteohub,2013-03-18 18:47:00,
2013-03-18 12:53:00,34.9,7.3,29.96,NW,304,4.0,16.0,31,0.00,,,0.00,meteohub,2013-03-18 18:53:00,
2013-03-18 12:58:00,35.8,5.9,29.95,SW,226,10.0,17.0,28,0.00,,,0.00,meteohub,2013-03-18 18:58:00,
2013-03-18 13:04:00,35.6,4.8,29.95,NE,34,2.0,17.0,27,0.00,,,0.00,meteohub,2013-03-18 19:04:00,
2013-03-18 13:09:00,36.3,6.3,29.95,WSW,242,4.0,17.0,28,0.00,,,0.00,meteohub,2013-03-18 19:09:00,
2013-03-18 13:15:00,36.3,7.2,29.96,NNW,343,1.0,18.0,29,0.00,,,0.00,meteohub,2013-03-18 19:15:00,
2013-03-18 13:21:00,35.4,6.3,29.95,WNW,294,3.0,14.0,29,0.00,,,0.00,meteohub,2013-03-18 19:21:00,
2013-03-18 13:26:00,36.0,6.8,29.95,West,276,5.0,18.0,29,0.00,,,0.00,meteohub,2013-03-18 19:26:00,
2013-03-18 13:32:00,36.3,7.9,29.96,WSW,253,4.0,18.0,30,0.00,,,0.00,meteohub,2013-03-18 19:32:00,
2013-03-18 13:37:00,36.3,8.6,29.96,NW,312,7.0,18.0,31,0.00,,,0.00,meteohub,2013-03-18 19:37:00,
2013-03-18 13:42:00,35.6,8.6,29.96,NNW,329,5.0,13.0,32,0.00,,,0.00,meteohub,2013-03-18 19:42:00,
2013-03-18 13:47:00,34.9,5.9,29.95,SW,217,1.0,18.0,29,0.00,,,0.00,meteohub,2013-03-18 19:47:00,
2013-03-18 13:52:00,35.8,8.1,29.95,West,259,2.0,18.0,31,0.00,,,0.00,meteohub,2013-03-18 19:52:00,
2013-03-18 13:57:00,36.0,6.1,29.95,SW,214,7.0,18.0,28,0.00,,,0.00,meteohub,2013-03-18 19:57:00,
2013-03-18 14:02:00,35.1,7.5,29.95,SW,229,4.0,20.0,31,0.00,,,0.00,meteohub,2013-03-18 20:02:00,
2013-03-18 14:07:00,34.3,6.8,29.95,NW,321,2.0,20.0,31,0.00,,,0.00,meteohub,2013-03-18 20:07:00,
2013-03-18 14:12:00,34.7,7.9,29.95,WNW,293,3.0,20.0,32,0.00,,,0.00,meteohub,2013-03-18 20:12:00,
2013-03-18 14:17:00,35.8,8.1,29.95,NNW,335,9.0,17.0,31,0.00,,,0.00,meteohub,2013-03-18 20:17:00,
2013-03-18 14:22:00,35.8,8.8,29.94,NNW,342,8.0,15.0,32,0.00,,,0.00,meteohub,2013-03-18 20:22:00,
2013-03-18 14:27:00,35.2,7.0,29.94,NW,305,5.0,18.0,30,0.00,,,0.00,meteohub,2013-03-18 20:27:00,
2013-03-18 14:33:00,36.0,7.5,29.94,NE,43,0.0,18.0,30,0.00,,,0.00,meteohub,2013-03-18 20:33:00,
2013-03-18 14:38:00,37.0,6.1,29.95,WSW,252,6.0,18.0,27,0.00,,,0.00,meteohub,2013-03-18 20:38:00,
2013-03-18 14:44:00,37.2,7.2,29.94,NNW,335,0.0,18.0,28,0.00,,,0.00,meteohub,2013-03-18 20:44:00,
2013-03-18 14:49:00,37.4,5.5,29.95,WSW,252,8.0,16.0,26,0.00,,,0.00,meteohub,2013-03-18 20:49:00,
2013-03-18 14:55:00,37.2,7.2,29.94,NW,322,10.0,16.0,28,0.00,,,0.00,meteohub,2013-03-18 20:55:00,
2013-03-18 15:00:00,36.9,6.8,29.94,WNW,297,5.0,15.0,28,0.00,,,0.00,meteohub,2013-03-18 21:00:00,
2013-03-18 15:06:00,37.2,6.3,29.94,WSW,249,4.0,15.0,27,0.00,,,0.00,meteohub,2013-03-18 21:06:00,
2013-03-18 15:12:00,36.9,5.2,29.94,WNW,300,6.0,15.0,26,0.00,,,0.00,meteohub,2013-03-18 21:12:00,
2013-03-18 15:17:00,37.2,7.2,29.94,SW,226,13.0,13.0,28,0.00,,,0.00,meteohub,2013-03-18 21:17:00,
2013-03-18 15:22:00,37.6,6.6,29.94,WNW,287,3.0,17.0,27,0.00,,,0.00,meteohub,2013-03-18 21:22:00,
2013-03-18 15:27:00,37.8,6.8,29.94,NW,323,1.0,17.0,27,0.00,,,0.00,meteohub,2013-03-18 21:27:00,
2013-03-18 15:33:00,38.1,7.2,29.94,WSW,250,11.0,17.0,27,0.00,,,0.00,meteohub,2013-03-18 21:33:00,
2013-03-18 15:38:00,37.9,5.2,29.94,NNW,328,3.0,16.0,25,0.00,,,0.00,meteohub,2013-03-18 21:38:00,
2013-03-18 15:44:00,37.6,4.1,29.94,WNW,287,2.0,16.0,24,0.00,,,0.00,meteohub,2013-03-18 21:44:00,
2013-03-18 15:49:00,37.9,6.1,29.94,NW,316,6.0,16.0,26,0.00,,,0.00,meteohub,2013-03-18 21:49:00,
2013-03-18 15:55:00,37.4,4.8,29.94,WNW,288,0.0,23.0,25,0.00,,,0.00,meteohub,2013-03-18 21:55:00,
2013-03-18 16:00:00,37.4,5.5,29.94,NW,325,3.0,23.0,26,0.00,,,0.00,meteohub,2013-03-18 22:00:00,
2013-03-18 16:06:00,37.9,6.1,29.94,NW,312,4.0,18.0,26,0.00,,,0.00,meteohub,2013-03-18 22:06:00,
2013-03-18 16:11:00,37.9,5.2,29.94,NNW,331,6.0,18.0,25,0.00,,,0.00,meteohub,2013-03-18 22:11:00,
2013-03-18 16:17:00,38.3,6.4,29.94,NW,318,3.0,18.0,26,0.00,,,0.00,meteohub,2013-03-18 22:17:00,
2013-03-18 16:23:00,38.7,5.0,29.94,West,259,13.0,18.0,24,0.00,,,0.00,meteohub,2013-03-18 22:23:00,
2013-03-18 16:28:00,38.7,4.1,29.94,SW,235,7.0,17.0,23,0.00,,,0.00,meteohub,2013-03-18 22:28:00,
2013-03-18 16:34:00,37.8,5.0,29.94,NW,305,5.0,17.0,25,0.00,,,0.00,meteohub,2013-03-18 22:34:00,
2013-03-18 16:39:00,38.1,5.4,29.95,NW,319,6.0,18.0,25,0.00,,,0.00,meteohub,2013-03-18 22:39:00,
2013-03-18 16:45:00,37.8,5.0,29.95,West,264,3.0,18.0,25,0.00,,,0.00,meteohub,2013-03-18 22:45:00,
2013-03-18 16:50:00,37.9,5.2,29.95,WSW,245,12.0,24.0,25,0.00,,,0.00,meteohub,2013-03-18 22:50:00,
2013-03-18 16:56:00,38.3,6.4,29.95,NW,315,3.0,24.0,26,0.00,,,0.00,meteohub,2013-03-18 22:56:00,
2013-03-18 17:02:00,38.7,5.0,29.95,West,280,12.0,13.0,24,0.00,,,0.00,meteohub,2013-03-18 23:02:00,
2013-03-18 17:07:00,38.5,3.9,29.95,WNW,300,9.0,14.0,23,0.00,,,0.00,meteohub,2013-03-18 23:07:00,
2013-03-18 17:12:00,37.9,4.3,29.95,West,273,4.0,14.0,24,0.00,,,0.00,meteohub,2013-03-18 23:12:00,
2013-03-18 17:17:00,37.6,5.7,29.95,NW,314,8.0,14.0,26,0.00,,,0.00,meteohub,2013-03-18 23:17:00,
2013-03-18 17:22:00,37.2,4.6,29.95,SSE,149,9.0,13.0,25,0.00,,,0.00,meteohub,2013-03-18 23:22:00,
2013-03-18 17:27:00,37.8,5.0,29.96,WSW,254,4.0,13.0,25,0.00,,,0.00,meteohub,2013-03-18 23:27:00,
2013-03-18 17:32:00,37.4,3.9,29.95,North,349,3.0,11.0,24,0.00,,,0.00,meteohub,2013-03-18 23:32:00,
2013-03-18 17:37:00,37.0,3.6,29.95,SW,227,3.0,18.0,24,0.00,,,0.00,meteohub,2013-03-18 23:37:00,
2013-03-18 17:42:00,37.0,3.6,29.96,West,272,17.0,18.0,24,0.00,,,0.00,meteohub,2013-03-18 23:42:00,
2013-03-18 17:47:00,37.0,4.5,29.96,NW,322,4.0,20.0,25,0.00,,,0.00,meteohub,2013-03-18 23:47:00,
2013-03-18 17:52:00,37.2,4.6,29.96,East,93,1.0,20.0,25,0.00,,,0.00,meteohub,2013-03-18 23:52:00,
2013-03-18 17:57:00,37.0,4.5,29.96,North,0,5.0,20.0,25,0.00,,,0.00,meteohub,2013-03-18 23:57:00,
2013-03-18 18:02:00,36.7,4.1,29.96,NW,318,7.0,12.0,25,0.00,,,0.00,meteohub,2013-03-19 00:02:00,
2013-03-18 18:07:00,36.1,4.5,29.96,NW,323,15.0,15.0,26,0.00,,,0.00,meteohub,2013-03-19 00:07:00,
2013-03-18 18:12:00,36.1,3.7,29.96,NNW,335,5.0,18.0,25,0.00,,,0.00,meteohub,2013-03-19 00:12:00,
2013-03-18 18:17:00,36.1,2.8,29.96,South,170,2.0,18.0,24,0.00,,,0.00,meteohub,2013-03-19 00:17:00,
2013-03-18 18:22:00,36.3,3.9,29.97,NNW,329,1.0,18.0,25,0.00,,,0.00,meteohub,2013-03-19 00:22:00,
2013-03-18 18:27:00,36.3,3.9,29.97,SW,219,6.0,9.0,25,0.00,,,0.00,meteohub,2013-03-19 00:27:00,
2013-03-18 18:32:00,36.3,3.9,29.97,WSW,243,2.0,10.0,25,0.00,,,0.00,meteohub,2013-03-19 00:32:00,
2013-03-18 18:37:00,36.0,4.5,29.97,WSW,243,6.0,14.0,26,0.00,,,0.00,meteohub,2013-03-19 00:37:00,
2013-03-18 18:43:00,35.4,3.9,29.97,WNW,301,2.0,14.0,26,0.00,,,0.00,meteohub,2013-03-19 00:43:00,
2013-03-18 18:48:00,35.2,3.7,29.98,WNW,301,2.0,14.0,26,0.00,,,0.00,meteohub,2013-03-19 00:48:00,
2013-03-18 18:54:00,34.9,3.4,29.97,West,263,0.0,13.0,26,0.00,,,0.00,meteohub,2013-03-19 00:54:00,
2013-03-18 18:59:00,34.3,3.7,29.97,WNW,293,3.0,13.0,27,0.00,,,0.00,meteohub,2013-03-19 00:59:00,
2013-03-18 19:05:00,34.3,3.0,29.97,West,266,0.0,7.0,26,0.00,,,0.00,meteohub,2013-03-19 01:05:00,
2013-03-18 19:10:00,34.3,3.7,29.97,NNW,331,1.0,11.0,27,0.00,,,0.00,meteohub,2013-03-19 01:10:00,
2013-03-18 19:16:00,34.5,4.8,29.97,SSW,194,3.0,15.0,28,0.00,,,0.00,meteohub,2013-03-19 01:16:00,
2013-03-18 19:21:00,34.3,4.6,29.97,SW,231,8.0,15.0,28,0.00,,,0.00,meteohub,2013-03-19 01:21:00,
2013-03-18 19:27:00,34.5,4.8,29.97,WSW,239,4.0,15.0,28,0.00,,,0.00,meteohub,2013-03-19 01:27:00,
2013-03-18 19:32:00,34.5,4.8,29.97,WSW,241,5.0,13.0,28,0.00,,,0.00,meteohub,2013-03-19 01:32:00,
2013-03-18 19:37:00,34.5,4.8,29.97,WNW,286,4.0,15.0,28,0.00,,,0.00,meteohub,2013-03-19 01:37:00,
2013-03-18 19:43:00,34.3,4.6,29.97,NNW,331,4.0,17.0,28,0.00,,,0.00,meteohub,2013-03-19 01:43:00,
2013-03-18 19:48:00,34.5,5.5,29.97,WSW,246,1.0,17.0,29,0.00,,,0.00,meteohub,2013-03-19 01:48:00,
2013-03-18 19:54:00,34.3,5.4,29.98,WSW,239,3.0,17.0,29,0.00,,,0.00,meteohub,2013-03-19 01:54:00,
2013-03-18 19:59:00,34.2,5.2,29.98,West,280,0.0,17.0,29,0.00,,,0.00,meteohub,2013-03-19 01:59:00,
2013-03-18 20:05:00,34.2,4.5,29.98,SW,229,1.0,12.0,28,0.00,,,0.00,meteohub,2013-03-19 02:05:00,
2013-03-18 20:11:00,34.3,4.6,29.98,WSW,252,2.0,11.0,28,0.00,,,0.00,meteohub,2013-03-19 02:11:00,
2013-03-18 20:17:00,34.2,4.5,29.98,WNW,283,2.0,11.0,28,0.00,,,0.00,meteohub,2013-03-19 02:17:00,
2013-03-18 20:22:00,33.3,4.5,29.98,ESE,113,2.0,11.0,29,0.00,,,0.00,meteohub,2013-03-19 02:22:00,
2013-03-18 20:27:00,33.6,3.9,29.98,ESE,118,6.0,7.0,28,0.00,,,0.00,meteohub,2013-03-19 02:27:00,
2013-03-18 20:33:00,33.4,3.7,29.98,West,263,0.0,7.0,28,0.00,,,0.00,meteohub,2013-03-19 02:33:00,
2013-03-18 20:38:00,33.6,3.9,29.99,ENE,73,2.0,7.0,28,0.00,,,0.00,meteohub,2013-03-19 02:38:00,
2013-03-18 20:44:00,33.4,4.6,29.99,East,79,3.0,7.0,29,0.00,,,0.00,meteohub,2013-03-19 02:44:00,
2013-03-18 20:49:00,33.3,4.5,29.99,SE,139,0.0,4.0,29,0.00,,,0.00,meteohub,2013-03-19 02:49:00,
2013-03-18 20:55:00,33.1,4.3,29.99,NE,47,0.0,4.0,29,0.00,,,0.00,meteohub,2013-03-19 02:55:00,
2013-03-18 21:01:00,33.1,3.6,29.99,ESE,117,3.0,4.0,28,0.00,,,0.00,meteohub,2013-03-19 03:01:00,
2013-03-18 21:06:00,33.3,3.7,30.00,NW,305,1.0,4.0,28,0.00,,,0.00,meteohub,2013-03-19 03:06:00,
2013-03-18 21:12:00,33.3,3.7,30.00,NNW,331,7.0,7.0,28,0.00,,,0.00,meteohub,2013-03-19 03:12:00,
2013-03-18 21:17:00,33.4,4.6,30.00,NNE,27,3.0,8.0,29,0.00,,,0.00,meteohub,2013-03-19 03:17:00,
2013-03-18 21:23:00,33.4,3.0,30.00,SW,233,2.0,8.0,27,0.00,,,0.00,meteohub,2013-03-19 03:23:00,
2013-03-18 21:28:00,33.4,3.0,30.00,NNW,328,0.0,8.0,27,0.00,,,0.00,meteohub,2013-03-19 03:28:00,
2013-03-18 21:34:00,33.6,3.2,30.01,WSW,256,4.0,4.0,27,0.00,,,0.00,meteohub,2013-03-19 03:34:00,
2013-03-18 21:39:00,33.6,3.2,30.01,WNW,287,6.0,6.0,27,0.00,,,0.00,meteohub,2013-03-19 03:39:00,
2013-03-18 21:45:00,33.6,3.2,30.01,WNW,298,1.0,7.0,27,0.00,,,0.00,meteohub,2013-03-19 03:45:00,
2013-03-18 21:50:00,34.3,3.0,30.00,NW,316,6.0,18.0,26,0.00,,,0.00,meteohub,2013-03-19 03:50:00,
2013-03-18 21:56:00,34.5,2.3,30.00,NNW,331,5.0,18.0,25,0.00,,,0.00,meteohub,2013-03-19 03:56:00,
2013-03-18 22:01:00,34.3,3.0,30.00,SW,217,1.0,18.0,26,0.00,,,0.00,meteohub,2013-03-19 04:01:00,
2013-03-18 22:02:00,34.2,2.8,30.00,NW,311,1.0,18.0,26,0.00,,,0.00,meteohub,2013-03-19 04:02:00,
2013-03-18 22:05:00,33.8,3.4,30.00,West,280,5.0,18.0,27,0.00,,,0.00,meteohub,2013-03-19 04:05:00,
2013-03-18 22:07:00,34.0,2.7,30.00,SSW,198,1.0,8.0,26,0.00,,,0.00,meteohub,2013-03-19 04:07:00,
2013-03-18 22:13:00,34.0,2.7,30.00,SSW,212,1.0,8.0,26,0.00,,,0.00,meteohub,2013-03-19 04:13:00,
2013-03-18 22:19:00,33.6,2.3,30.00,South,190,4.0,8.0,26,0.00,,,0.00,meteohub,2013-03-19 04:19:00,
2013-03-18 22:24:00,33.8,2.5,30.00,NNW,346,4.0,6.0,26,0.00,,,0.00,meteohub,2013-03-19 04:24:00,
2013-03-18 22:30:00,34.3,3.0,30.00,SW,218,6.0,11.0,26,0.00,,,0.00,meteohub,2013-03-19 04:30:00,
2013-03-18 22:36:00,34.3,3.0,30.00,SW,235,10.0,12.0,26,0.00,,,0.00,meteohub,2013-03-19 04:36:00,
2013-03-18 22:41:00,34.5,3.2,30.00,SSW,203,3.0,12.0,26,0.00,,,0.00,meteohub,2013-03-19 04:41:00,
2013-03-18 22:47:00,34.5,3.2,30.00,NNE,32,2.0,12.0,26,0.00,,,0.00,meteohub,2013-03-19 04:47:00,
2013-03-18 22:52:00,34.7,2.5,30.00,SW,236,4.0,10.0,25,0.00,,,0.00,meteohub,2013-03-19 04:52:00,
2013-03-18 22:58:00,35.1,2.8,30.01,NNW,346,2.0,13.0,25,0.00,,,0.00,meteohub,2013-03-19 04:58:00,
2013-03-18 23:03:00,34.9,2.7,30.00,West,276,0.0,13.0,25,0.00,,,0.00,meteohub,2013-03-19 05:03:00,
2013-03-18 23:09:00,34.9,2.7,30.01,SW,231,4.0,10.0,25,0.00,,,0.00,meteohub,2013-03-19 05:09:00,
2013-03-18 23:14:00,34.9,2.7,30.01,SSW,193,3.0,6.0,25,0.00,,,0.00,meteohub,2013-03-19 05:14:00,
2013-03-18 23:20:00,35.2,2.8,30.01,NW,316,2.0,11.0,25,0.00,,,0.00,meteohub,2013-03-19 05:20:00,
2013-03-18 23:26:00,35.2,2.8,30.01,NNW,340,3.0,14.0,25,0.00,,,0.00,meteohub,2013-03-19 05:26:00,
2013-03-18 23:31:00,34.7,3.4,30.00,SSE,148,2.0,14.0,26,0.00,,,0.00,meteohub,2013-03-19 05:31:00,
2013-03-18 23:37:00,34.3,3.0,30.01,West,270,1.0,9.0,26,0.00,,,0.00,meteohub,2013-03-19 05:37:00,
2013-03-18 23:42:00,34.3,3.0,30.01,SW,226,1.0,8.0,26,0.00,,,0.00,meteohub,2013-03-19 05:42:00,
2013-03-18 23:47:00,34.5,3.2,30.01,SSW,212,1.0,11.0,26,0.00,,,0.00,meteohub,2013-03-19 05:47:00,
2013-03-18 23:52:00,34.5,3.2,30.01,WSW,254,2.0,11.0,26,0.00,,,0.00,meteohub,2013-03-19 05:52:00,
2013-03-18 23:58:00,34.9,2.7,30.00,WNW,295,0.0,11.0,25,0.00,,,0.00,meteohub,2013-03-19 05:58:00,